Regional Weather Roundup
Issued by NWS

Home | Current Version | Previous Version | Text Only | Print | Product List | Glossary Off
Versions: 1 2 3 4 5 6 7 8 9 10 11 12 13 14 15 16 17 18 19 20 21 22 23 24 25 26 27 28 29 30 31 32 33 34 35 36 37 38 39 40 41 42 43 44 45 46 47 48 49 50

000
ASUS43 KDTX 252110
RWRMI
MICHIGAN HOURLY REGIONAL WEATHER ROUNDUP
NATIONAL WEATHER SERVICE DETROIT/PONTIAC MI
ISSUED BY NATIONAL WEATHER SERVICE GRAND RAPIDS MI
500 PM EDT FRI MAY 25 2018

NOTE: "FAIR" INDICATES FEW OR NO CLOUDS BELOW 12,000 FEET WITH NO
SIGNIFICANT WEATHER AND/OR OBSTRUCTION TO VISIBILITY.

MIZ047>049-052>055-059>063-066>070-074>076-081>083-252200-
SOUTHEAST LOWER MICHIGAN

CITY           SKY/WX    TMP DP  RH WIND       PRES   REMARKS
ADRIAN         FAIR      84  54  35 W7        29.86F
ALMA           FAIR      86  59  39 SW15G22   29.82F
ANN ARBOR      FAIR      85  58  39 S8        29.85F
BAD AXE        FAIR      85  58  39 SW17G24   29.80F
DETROIT CITY   FAIR      85  56  37 S13       29.84F
DETROIT        FAIR      86  55  34 S13       29.85F
FLINT          FAIR      85  58  39 SW7       29.83F
GROSSE ILE     FAIR      77  58  51 SE9       29.85F
HILLSDALE      FAIR      86  50  28 W8        29.87F
HOWELL         FAIR      85  56  38 SW7       29.85F

CITY           SKY/WX    TMP DP  RH WIND       PRES   REMARKS
JACKSON        FAIR      85  57  38 S7        29.85F
LANSING        FAIR      86  59  39 W7        29.84F
MASON          FAIR      86  54  33 SW5       29.85F
MONROE         FAIR      86  48  26 SW8       29.85F
MT. CLEMENS    MOSUNNY   83  62  49 S12       29.84F
PONTIAC        FAIR      86  58  38 S7        29.83F
PORT HOPE        N/A     88  59  37 VRB7G23   29.77F
PORT HURON     FAIR      84  54  34 SW10G16   29.84F
TRI CITIES     FAIR      88  59  37 SW17      29.80F
YPSILANTI      FAIR      90  54  29 SW10      29.85F
$$
MIZ043>046-050>051-056>058-064>065-071>073-077>080-252200-
SOUTHWEST LOWER MICHIGAN

CITY           SKY/WX    TMP DP  RH WIND       PRES   REMARKS
BATTLE CREEK   FAIR      86  59  39 W10       29.85F
BENTON HARBOR  FAIR      85  58  39 W7        29.84F
BIG RAPIDS     FAIR      84  55  36 W13G20    29.80F
COLDWATER      FAIR      86  45  24 S5        29.85F
HOLLAND        FAIR      83  61  47 W8        29.85F
GRAND RAPIDS   FAIR      86  61  42 W12       29.83F
KALAMAZOO      FAIR      86  58  38 S7        29.84F
MARSHALL       FAIR      86  52  30 W5        29.85F
MOUNT PLEASANT FAIR      87  59  38 SW17G23   29.80F
MUSKEGON       PTSUNNY   79  59  50 S10       29.83F
STURGIS        FAIR      85  57  38 W5        29.85F
$$
MIZ016>042-252200-
NORTHERN LOWER MICHIGAN

CITY           SKY/WX    TMP DP  RH WIND       PRES   REMARKS
ALPENA         FAIR      89  62  40 SW13G21   29.73F
BEAVER ISLAND  FAIR      62  52  69 W17       29.80R
BELLAIRE       FAIR      87  58  36 W6        29.74F
CADILLAC       FAIR      85  57  38 SW14      29.80F
CHARLEVOIX     FAIR      84  63  48 SW9       29.77F
GAYLORD        FAIR      84  59  42 SW14G24   29.77F
HOUGHTON LAKE  FAIR      84  57  39 W13       29.79F
MANISTEE       FAIR      85  64  49 S15G23    29.77F
OSCODA         LGT RAIN  75  60  60 NE6       29.77F
PELLSTON       FAIR      83  65  54 W9G17     29.75F
TRAVERSE CITY  PTSUNNY   88  61  40 SW12G18   29.73F
LUDINGTON      FAIR      81  63  53 S16       29.79F
$$
MIZ007>008-015-252200-
EASTERN UPPER MICHIGAN

CITY           SKY/WX    TMP DP  RH WIND       PRES   REMARKS
KINROSS        FAIR      79  61  53 W13       29.74F
MACKINAC ISLAN FAIR      71  60  67 W8G17     29.74F
NEWBERRY       FAIR      74  65  74 SW6       29.74S
S. S. MARIE    FAIR      80  63  55 NW7       29.72F
$$
MIZ004>006-011>014-085-252200-
CENTRAL UPPER MICHIGAN

CITY           SKY/WX    TMP DP  RH WIND       PRES   REMARKS
MANISTIQUE     LGT RAIN  61  59  94 S8        29.73F
ESCANABA       FAIR      72  66  81 E8        29.72F
MENOMINEE      FAIR      87  56  34 W9        29.71F
SAWYER-GWINN   MOSUNNY   81  54  39 SW16      29.72F
$$
MIZ001>003-009>011-084-252200-
WESTERN UPPER MICHIGAN

CITY           SKY/WX    TMP DP  RH WIND       PRES   REMARKS
IRON MOUNTAIN  FAIR      83  58  42 W8G18     29.71F
HOUGHTON       FAIR      81  63  54 S7        29.67F
COPPER HARBOR    N/A     54  50  86 NW6       29.67F
$$

ABBREVIATIONS USED IN REMARKS
   TC - TEMPERATURE IN CELSIUS
  WCI - WIND CHILL INDEX
   HX - HEAT INDEX
  VSB - VISIBILITY




USA.gov is the U.S. government's official web portal to all federal, state and local government web resources and services.